This demonstration page uses our WeatherBlox Daily Observations layout. Learn more.

Left ArrowRight Arrow

39.08367, -84.50855

Hourly Observations for August 11, 2022

Temp ( °F °C ) Dew Point ( °F °C ) Humidity (%) Winds ( mph kmh ) Pressure ( in mb ) Visibility ( mi km ) Precip ( " mm )
12:53 am 00:53 Clear with Mist and Fog 69 20.6 67 19.4 93 93 Calm 30.09 1019 6 10 0.00 0.00
1:45 am 01:45 Clear with Mist and Fog 68 20 67 19.4 96 96 Calm 30.09 1019 3 4 0.00 0.00
1:53 am 01:53 Clear with Mist and Fog 67 19.4 67 19.4 100 100 Calm 30.09 1019 3 5 0.00 0.00
2:11 am 02:11 Clear with Mist and Fog 66 18.9 66 18.9 100 100 Calm 30.09 1019 2 2 0.00 0.00
2:24 am 02:24 Mostly Cloudy with Mist and Fog 66 18.9 66 18.9 100 100 Calm 30.09 1019 3 5 0.00 0.00
2:53 am 02:53 Mostly Clear with Mist and Fog 66 18.9 66 18.9 100 100 Calm 30.09 1019 3 4 0.00 0.00
3:01 am 03:01 Partly Cloudy with Mist and Fog 66 18.9 66 18.9 100 100 Calm 30.09 1019 1 1 0.00 0.00
3:16 am 03:16 Mostly Clear with Mist and Fog 66 18.9 65 18.3 96 96 Calm 30.09 1019 1 2 0.00 0.00
3:39 am 03:39 Clear with Mist and Fog 66 18.9 66 18.9 100 100 Calm 30.10 1019 2 3 0.00 0.00
3:44 am 03:44 Clear with Mist and Fog 65 18.3 65 18.3 100 100 Calm 30.09 1019 1 1 0.00 0.00
3:53 am 03:53 Mostly Clear with Fog 65 18.3 65 18.3 100 100 Calm 30.09 1019 0 0 0.00 0.00
4:43 am 04:43 Mostly Clear with Fog 63 17.2 63 17.2 100 100 Calm 30.10 1019 1 1 0.00 0.00
4:45 am 04:45 Mostly Clear with Mist and Fog 63 17.2 63 17.2 100 100 Calm 30.10 1019 1 2 0.00 0.00
4:53 am 04:53 Mostly Clear with Mist and Fog 64 17.8 63 17.2 96 96 Calm 30.10 1019 1 1 0.00 0.00
5:10 am 05:10 Clear with Mist and Fog 64 17.8 64 17.8 100 100 Calm 30.09 1019 3 5 0.00 0.00
5:20 am 05:20 Mostly Clear with Mist and Fog 64 17.8 64 17.8 100 100 Calm 30.09 1019 1 2 0.00 0.00
5:25 am 05:25 Mostly Clear with Fog 64 17.8 64 17.8 100 100 Calm 30.09 1019 0 0 0.00 0.00
5:53 am 05:53 Mostly Clear with Fog 62 16.7 62 16.7 100 100 Calm 30.09 1019 0 0 0.00 0.00
6:01 am 06:01 Mostly Clear with Fog 63 17.2 63 17.2 100 100 Calm 30.09 1019 0 0 0.00 0.00
6:13 am 06:13 Mostly Clear with Mist and Fog 62 16.7 62 16.7 100 100 Calm 30.10 1019 1 1 0.00 0.00
6:25 am 06:25 Mostly Clear with Fog 63 17.2 62 16.7 97 97 Calm 30.09 1019 0 0 0.00 0.00
6:40 am 06:40 Mostly Clear with Fog 62 16.7 62 16.7 100 100 Calm 30.10 1019 1 1 0.00 0.00
6:49 am 06:49 Sunny with Patchy Fog 63 17 63 17 100 100 Calm 30.10 1019 3 4 0.00 0.00
6:53 am 06:53 Sunny with Patchy Fog 63 17.2 63 17.2 100 100 Calm 30.09 1019 3 4 0.00 0.00
7:16 am 07:16 Sunny with Patchy Fog 63 17.2 63 17.2 100 100 Calm 30.10 1019 5 8 0.00 0.00
7:53 am 07:53 Sunny 65 18.3 65 18.3 100 100 Calm 30.11 1020 7 11 0.00 0.00
8:53 am 08:53 Sunny 71 21.7 66 18.9 84 84 NNE 3 6 30.11 1020 10 16 0.00 0.00
9:53 am 09:53 Sunny 75 23.9 64 17.8 69 69 N 9 15 30.11 1020 10 16 0.00 0.00
10:53 am 10:53 Sunny 78 25.6 64 17.8 62 62 NNE 8 13 30.11 1020 10 16 0.00 0.00
11:53 am 11:53 Mostly Sunny 79 26.1 63 17.2 58 58 Calm 30.10 1019 10 16 0.00 0.00
12:53 pm 12:53 Sunny 82 27.8 62 16.7 51 51 N 6 9 30.09 1019 10 16 0.00 0.00
1:53 pm 13:53 Sunny 84 28.9 61 16.1 46 46 NNW 8 13 30.08 1019 10 16 0.00 0.00
2:53 pm 14:53 Sunny 84 28.9 61 16.1 46 46 WNW 5 7 30.06 1018 10 16 0.00 0.00
3:53 pm 15:53 Partly Cloudy 83 28.3 63 17.2 51 51 N 8 13 30.05 1018 10 16 0.00 0.00
4:53 pm 16:53 Sunny 85 29.4 64 17.8 50 50 NNW 5 7 30.03 1017 10 16 0.00 0.00
5:53 pm 17:53 Mostly Cloudy 83 28.3 65 18.3 55 55 NNE 5 7 30.02 1017 10 16 0.00 0.00
6:53 pm 18:53 Sunny 83 28.3 63 17.2 51 51 NE 5 7 30.02 1017 10 16 0.00 0.00
7:53 pm 19:53 Partly Cloudy 81 27.2 63 17.2 54 54 N 7 11 30.03 1017 10 16 0.00 0.00
8:53 pm 20:53 Cloudy 79 26.1 65 18.3 62 62 N 10 17 30.04 1017 10 16 0.00 0.00
9:53 pm 21:53 Cloudy 77 25 66 18.9 69 69 N 9 15 30.07 1018 10 16 0.00 0.00
10:53 pm 22:53 Mostly Cloudy 74 23.3 62 16.7 66 66 NE 12 19 30.09 1019 10 16 0.00 0.00
11:53 pm 23:53 Mostly Cloudy 71 21.7 62 16.7 73 73 NE 6 9 30.09 1019 10 16 0.00 0.00

Powered by AerisWeather